Location: Olmeneta
(45.2333°N, 10.0167°E)
Time: 13:41:28
(UTC+00:00)

Okean-O - Pass Details

Date: 03 March 2021
Orbit: 639 x 640 km, 98.2° (Epoch: 16 April)

Event Time Altitude Azimuth Distance (km) Brightness Sun altitude
Rises 18:21:01 0° 176° (S) 2,932 5.9 -13.3°
Reaches altitude 10° 18:23:14 10° 180° (S) 2,027 5.2 -13.7°
Maximum altitude 18:27:35 56° 259° (W) 761 3.3 -14.4°
Drops below altitude 10° 18:31:58 10° 338° (NNW) 2,043 5.6 -15.2°
Sets 18:34:13 0° 343° (NNW) 2,957 6.4 -15.6°
